,

(GMT )
Manston

Weather History for EGMH - July, 2013

Change the Weather History Date:

Thursday, July 25, 2013

  Actual Average Record
Temperature  
Mean Temperature 70 °F -  
Max Temperature 78 °F - - ()
Min Temperature 61 °F - - ()
Cooling Degree Days 4    
Growing Degree Days 20 (Base 50)    
Moisture  
Dew Point 61 °F    
Average Humidity 70    
Maximum Humidity 94    
Minimum Humidity 55    
Precipitation  
Precipitation 0.00 in - - ()
Sea Level Pressure  
Sea Level Pressure 29.93 in    
Wind  
Wind Speed 9 mph ()    
Max Wind Speed 17 mph    
Max Gust Speed -    
Visibility 7.1 miles    
Events      
T = Trace of Precipitation, MM = Missing Value Source: Averaged Metar Reports

Daily Weather History Graph

Daily Weather History Graph

Search for Another Location

Airport or City:

Trip Planner

Search our weather history database for the weather conditions in past years. The results will help you decide how hot, cold, wet, or windy it might be!

Date:

Astronomy

Jul. 25, 2013 Rise Set
Actual Time 5:08 AM BST 8:52 PM BST
Civil Twilight 4:26 AM BST 9:34 PM BST
Nautical Twilight 3:28 AM BST 10:31 PM BST
Astronomical Twilight 1:55 AM BST 12:01 AM BST
Moon 9:50 PM BST (7/25) 8:50 AM BST (7/25)
Length of Visible Light 17h 07m
Length of Day
15h 43m
Waning Gibbous, 90% of the Moon is Illuminated
Jul 25
Waning Gibbous
Jul 29
Last Quarter
Aug 6
New
Aug 14
First Quarter
Aug 21
Full

Hourly Weather History & Observations

Time (BST) Temp. Dew Point Humidity Pressure Visibility Wind Dir Wind Speed Gust Speed Precip Events Conditions
12:50 AM 63 °F 59 °F 83% 29.97 in 22 mi South 5.8 mph - -   Mostly Cloudy
3:50 AM 63 °F 61 °F 89% 29.94 in 12 mi SE 8.1 mph - -   Scattered Clouds
5:50 AM 62.6 °F 59.0 °F 88% 29.92 in - SE 8.1 mph - N/A   Clear
6:20 AM 64.4 °F 60.8 °F 88% 29.92 in - SE 6.9 mph - N/A   Clear
6:50 AM 65 °F 62 °F 89% 29.94 in 8 mi SE 10.4 mph - -  
6:50 AM 64.4 °F 60.8 °F 88% 29.95 in 5.0 mi SE 8.1 mph - N/A   Scattered Clouds
7:20 AM 64.4 °F 62.6 °F 94% 29.92 in 5.0 mi SE 5.8 mph - N/A   Scattered Clouds
7:50 AM 66.2 °F 62.6 °F 88% 29.92 in 5.0 mi SE 8.1 mph - N/A   Scattered Clouds
8:20 AM 68.0 °F 62.6 °F 83% 29.92 in 5.6 mi South 6.9 mph - N/A   Partly Cloudy
8:50 AM 69.8 °F 62.6 °F 78% 29.92 in 6.2 mi SSW 6.9 mph - N/A   Partly Cloudy
9:20 AM 69.8 °F 62.6 °F 78% 29.92 in 6.2 mi SSW 6.9 mph - N/A   Partly Cloudy
9:50 AM 73 °F 61 °F 58% 29.92 in 17 mi SW 10.4 mph - -   Scattered Clouds
9:50 AM 73.4 °F 62.6 °F 69% 29.92 in 6.2 mi SSW 9.2 mph - N/A   Partly Cloudy
10:20 AM 75.2 °F 60.8 °F 61% 29.92 in 6.2 mi SW 8.1 mph - N/A   Partly Cloudy
10:50 AM 75.2 °F 62.6 °F 65% 29.92 in 6.2 mi SW 11.5 mph - N/A   Partly Cloudy
11:20 AM 77.0 °F 62.6 °F 61% 29.92 in 6.2 mi SSW 11.5 mph - N/A   Partly Cloudy
11:50 AM 77.0 °F 62.6 °F 61% 29.92 in 6.2 mi SW 12.7 mph - N/A   Scattered Clouds
12:20 PM 75.2 °F 62.6 °F 65% 29.92 in 6.2 mi WSW 11.5 mph - N/A   Scattered Clouds
12:50 PM 74 °F 62 °F 58% 29.93 in 19 mi SSW 13.8 mph - -   Mostly Cloudy
12:50 PM 75.2 °F 62.6 °F 65% 29.92 in 6.2 mi SW 12.7 mph - N/A   Mostly Cloudy
1:20 PM 75.2 °F 62.6 °F 65% 29.92 in 6.2 mi SW 11.5 mph - N/A   Mostly Cloudy
1:50 PM 77.0 °F 62.6 °F 61% 29.92 in 6.2 mi SSW 13.8 mph - N/A   Mostly Cloudy
2:20 PM 78.8 °F 62.6 °F 57% 29.92 in 6.2 mi SSW 17.3 mph - N/A   Scattered Clouds
2:50 PM 77.0 °F 62.6 °F 61% 29.92 in 6.2 mi SSW 16.1 mph - N/A   Partly Cloudy
3:20 PM 77.0 °F 62.6 °F 61% 29.92 in 6.2 mi SW 13.8 mph - N/A   Partly Cloudy
3:50 PM 76 °F 63 °F 55% 29.93 in 25 mi SSW 15.0 mph - -   Scattered Clouds
3:50 PM 75.2 °F 62.6 °F 65% 29.92 in 6.2 mi SSW 15.0 mph - N/A   Partly Cloudy
4:20 PM 75.2 °F 62.6 °F 65% 29.92 in 6.2 mi SSW 13.8 mph - N/A   Partly Cloudy
4:50 PM 75.2 °F 62.6 °F 65% 29.92 in 6.2 mi SSW 12.7 mph - N/A   Partly Cloudy
5:20 PM 73.4 °F 60.8 °F 65% 29.92 in 6.2 mi SSW 13.8 mph - N/A   Partly Cloudy
5:50 PM 71.6 °F 62.6 °F 73% 29.92 in 6.2 mi South 12.7 mph - N/A   Mostly Cloudy
6:20 PM 73.4 °F 60.8 °F 65% 29.92 in 6.2 mi SSW 13.8 mph - N/A   Partly Cloudy
6:50 PM 71.6 °F 59.0 °F 64% 29.92 in 6.2 mi SSW 12.7 mph - N/A   Partly Cloudy
7:50 PM 69.8 °F 57.2 °F 64% 29.92 in - SSW 10.4 mph - N/A   Clear
8:20 PM 68.0 °F 55.4 °F 64% 29.95 in - SSW 10.4 mph - N/A   Clear
9:50 PM 62 °F 56 °F 76% 29.96 in 28 mi South 6.9 mph - -